EW7594 Weather Reports


time (UTC)temp
F
wind
direction
speed
knots
gust
knots
rain 1hr
in
rain 24hr
in
rain mn
in
humidity
%
barometer
mb
20260510033004 54 0 0.0 3.5 0.00 0.02 0.01 95 1030.5
20260510032404 54 0 0.0 2.6 0.00 0.02 0.01 96 1030.6
20260510031525 53 87 0.9 2.6 0.00 0.02 0.01 95 1030.6
20260510030603 54 0 0.0 2.6 0.00 0.02 0.01 96 1030.7
20260510025704 54 0 0.0 1.7 0.00 0.02 0.01 96 1030.9
20260510024825 54 0 0.0 0.9 0.00 0.02 0.01 96 1030.9
20260510023904 54 87 0.9 2.6 0.00 0.02 0.01 96 1031.1
20260510023025 53 0 0.0 3.5 0.00 0.02 0.01 96 1031.2
20260510022404 53 0 0.0 3.5 0.00 0.02 0.01 96 1031.3
20260510021504 53 0 0.0 1.7 0.00 0.02 0.01 96 1031.5
20260510020604 54 0 0.0 0.0 0.00 0.02 0.01 97 1031.6
20260510015704 53 0 0.0 1.7 0.00 0.02 0.01 97 1031.7
20260510014804 52 0 0.0 0.9 0.00 0.02 0.01 97 1031.9
20260510013904 52 0 0.0 1.7 0.00 0.02 0.01 97 1032.0
20260510013004 52 0 0.0 1.7 0.00 0.02 0.01 97 1032.0
20260510012404 52 0 0.0 1.7 0.00 0.03 0.01 97 1032.0
20260510011504 52 0 0.0 0.0 0.00 0.03 0.01 97 1032.0
20260510010604 52 0 0.0 1.7 0.00 0.03 0.01 97 1032.0
20260510005704 51 0 0.0 2.6 0.00 0.03 0.01 97 1032.1
20260510004804 51 0 0.0 2.6 0.00 0.04 0.01 97 1032.0
20260510003904 51 0 0.0 1.7 0.00 0.04 0.01 97 1032.0
20260510003004 51 0 0.0 1.7 0.00 0.04 0.01 98 1032.0
20260510002404 51 0 0.0 0.9 0.00 0.04 0.01 98 1032.0
20260510001525 51 0 0.0 0.0 0.00 0.04 0.01 98 1032.1
20260510000604 51 0 0.0 0.0 0.00 0.04 0.01 98 1032.1
20260509235725 51 0 0.0 0.0 0.00 0.04 0.01 98 1032.1
20260509234825 50 0 0.0 0.9 0.00 0.04 0.01 98 1032.1
20260509233904 50 0 0.0 0.9 0.00 0.04 0.01 98 1032.2
20260509233004 50 0 0.0 0.9 0.00 0.04 0.01 98 1032.2
20260509232425 50 0 0.0 0.9 0.00 0.04 0.01 98 1032.2
20260509231525 50 0 0.0 0.9 0.00 0.04 0.01 98 1032.2
20260509230603 50 0 0.0 0.9 0.00 0.04 0.01 98 1032.0
20260509225704 50 0 0.0 0.0 0.00 0.04 0.01 98 1032.0
20260509224825 50 0 0.0 0.9 0.00 0.04 0.01 98 1032.0
20260509223904 50 0 0.0 0.0 0.00 0.04 0.01 98 1031.9
20260509223004 49 0 0.0 0.9 0.00 0.04 0.01 98 1031.8
20260509222403 50 0 0.0 0.0 0.00 0.04 0.01 98 1031.6
20260509221503 50 0 0.0 0.0 0.00 0.04 0.01 98 1031.6
20260509220624 50 0 0.0 0.9 0.00 0.04 0.01 98 1031.5
20260509215703 50 0 0.0 0.9 0.00 0.05 0.01 98 1031.4
20260509214803 50 0 0.0 0.9 0.00 0.05 0.01 98 1031.2
20260509213903 50 0 0.0 0.0 0.00 0.05 0.01 98 1031.1
20260509213004 50 0 0.0 0.0 0.00 0.05 0.01 98 1031.0
20260509212425 50 0 0.0 0.0 0.00 0.05 0.01 98 1030.9
20260509211524 50 0 0.0 0.0 0.00 0.05 0.01 98 1030.9
20260509210603 50 0 0.0 0.9 0.00 0.05 0.01 98 1030.9
20260509205704 50 0 0.0 0.0 0.00 0.05 0.01 98 1030.8
20260509204804 50 0 0.0 0.0 0.00 0.05 0.01 98 1030.8
20260509203903 50 0 0.0 0.0 0.00 0.05 0.01 98 1030.7
20260509203025 49 0 0.0 0.0 0.00 0.05 0.01 98 1030.6
20260509202404 49 0 0.0 0.0 0.00 0.05 0.01 98 1030.5
20260509201503 49 0 0.0 0.9 0.00 0.05 0.01 98 1030.4
20260509200604 49 0 0.0 0.0 0.00 0.05 0.01 98 1030.4
20260509195703 49 0 0.0 1.7 0.00 0.05 0.01 98 1030.4
20260509194803 49 0 0.0 0.0 0.00 0.06 0.01 98 1030.3
20260509193903 49 0 0.0 0.0 0.00 0.06 0.01 98 1030.2
20260509193004 49 0 0.0 0.0 0.00 0.06 0.01 98 1030.2
20260509192404 49 0 0.0 0.0 0.00 0.06 0.01 98 1030.1
20260509191504 49 0 0.0 0.0 0.00 0.06 0.01 98 1030.1
20260509190604 49 0 0.0 0.9 0.00 0.06 0.01 98 1030.0
20260509185704 49 0 0.0 0.9 0.00 0.06 0.01 98 1029.9
20260509184804 49 0 0.0 0.0 0.00 0.06 0.01 98 1029.8
20260509183903 49 0 0.0 0.9 0.00 0.06 0.01 98 1029.8
20260509183025 49 0 0.0 0.0 0.00 0.06 0.01 98 1029.8
20260509182425 49 0 0.0 0.9 0.00 0.06 0.01 98 1029.8
20260509181504 49 0 0.0 0.9 0.00 0.06 0.01 98 1029.8
20260509180603 49 0 0.0 1.7 0.00 0.06 0.01 98 1029.7
20260509175703 50 0 0.0 0.9 0.00 0.06 0.01 98 1029.6
20260509174803 50 0 0.0 1.7 0.00 0.06 0.01 98 1029.7
20260509173903 50 0 0.0 1.7 0.00 0.06 0.01 98 1029.6
20260509173004 50 0 0.0 0.9 0.00 0.06 0.01 98 1029.7
20260509172404 50 0 0.0 0.9 0.00 0.06 0.01 98 1029.5
20260509171503 50 0 0.0 0.9 0.00 0.06 0.01 98 1029.6
20260509170604 50 0 0.0 3.5 0.01 0.06 0.01 98 1029.7
20260509165703 50 0 0.0 2.6 0.01 0.06 0.01 98 1029.7
20260509164803 50 0 0.0 0.9 0.01 0.06 0.01 98 1029.8
20260509163924 50 0 0.0 1.7 0.01 0.06 0.01 98 1029.8
20260509163004 50 0 0.0 3.5 0.01 0.06 0.01 98 1029.9
20260509162424 50 0 0.0 3.5 0.01 0.06 0.01 98 1030.0
20260509161524 50 0 0.0 0.9 0.01 0.06 0.01 98 1030.0
20260509160604 50 0 0.0 1.7 0.00 0.05 0.00 97 1030.0
20260509155703 50 0 0.0 1.7 0.00 0.05 0.00 97 1030.0
20260509154825 50 0 0.0 1.7 0.00 0.05 0.00 98 1030.0
20260509153903 50 0 0.0 1.7 0.00 0.05 0.00 97 1029.9
20260509153024 50 0 0.0 1.7 0.00 0.05 0.00 97 1030.0
20260509152403 50 0 0.0 2.6 0.00 0.05 0.00 97 1030.0
20260509151525 50 0 0.0 1.7 0.00 0.05 0.00 97 1030.1
20260509150604 50 0 0.0 1.7 0.00 0.05 0.00 97 1030.1
20260509145704 50 0 0.0 2.6 0.00 0.05 0.00 97 1030.1
20260509143903 51 0 0.0 2.6 0.01 0.05 0.00 97 1030.1
20260509143004 51 0 0.0 2.6 0.01 0.05 0.00 97 1030.2
20260509142425 51 0 0.0 2.6 0.01 0.05 0.05 97 1030.2
20260509141503 51 0 0.0 2.6 0.01 0.05 0.05 97 1030.2
20260509140603 51 0 0.0 2.6 0.01 0.05 0.05 97 1030.2
20260509135704 51 0 0.0 3.5 0.01 0.05 0.05 97 1030.2
20260509134824 51 0 0.0 0.9 0.01 0.06 0.05 97 1030.2
20260509133924 51 0 0.0 1.7 0.00 0.05 0.04 97 1030.2
20260509133025 51 0 0.0 1.7 0.00 0.05 0.04 97 1030.2
20260509132424 51 0 0.0 0.9 0.00 0.05 0.04 97 1030.1
20260509131504 51 0 0.0 3.5 0.00 0.05 0.04 97 1030.2
20260509130603 51 0 0.0 0.9 0.00 0.05 0.04 96 1030.3
20260509125703 51 0 0.0 1.7 0.00 0.05 0.04 96 1030.3
20260509124804 51 0 0.0 0.9 0.00 0.05 0.04 96 1030.4
20260509123925 51 0 0.0 0.9 0.00 0.05 0.04 96 1030.4
20260509123004 51 0 0.0 0.9 0.00 0.05 0.04 96 1030.4
20260509122404 51 0 0.0 0.9 0.00 0.05 0.04 96 1030.3
20260509121504 50 0 0.0 0.9 0.00 0.05 0.04 96 1030.4
20260509120604 50 0 0.0 1.7 0.00 0.05 0.04 96 1030.3
20260509115725 50 0 0.0 0.9 0.00 0.05 0.04 96 1030.3
20260509114803 50 0 0.0 0.9 0.00 0.05 0.04 96 1030.2
20260509113903 50 0 0.0 1.7 0.00 0.05 0.04 96 1030.3
20260509113004 50 0 0.0 0.9 0.00 0.05 0.04 96 1030.2
20260509112403 50 0 0.0 0.9 0.00 0.05 0.04 96 1030.2
20260509111503 50 0 0.0 0.9 0.00 0.05 0.04 96 1030.3
20260509110604 51 0 0.0 1.7 0.00 0.05 0.04 96 1030.3
20260509105724 51 0 0.0 0.9 0.00 0.05 0.04 96 1030.3
20260509104803 51 0 0.0 1.7 0.00 0.05 0.04 96 1030.3
20260509103924 51 0 0.0 0.0 0.00 0.05 0.04 96 1030.3
20260509103004 51 0 0.0 0.0 0.00 0.05 0.04 96 1030.3
20260509102403 51 0 0.0 0.0 0.00 0.05 0.04 96 1030.3
20260509101503 51 0 0.0 0.9 0.00 0.05 0.04 96 1030.4
20260509100624 51 0 0.0 0.0 0.00 0.05 0.04 96 1030.3
20260509095703 51 0 0.0 0.9 0.00 0.05 0.04 95 1030.3
20260509094803 50 0 0.0 1.7 0.00 0.05 0.04 95 1030.4
20260509093904 51 0 0.0 0.0 0.00 0.05 0.04 95 1030.3
20260509093003 51 0 0.0 0.0 0.00 0.05 0.04 95 1030.2
20260509092403 52 0 0.0 0.0 0.00 0.05 0.04 95 1030.3
20260509091503 52 0 0.0 0.0 0.00 0.05 0.04 95 1030.3
20260509090604 52 0 0.0 3.5 0.00 0.05 0.04 95 1030.3
20260509085703 52 0 0.0 0.9 0.00 0.05 0.04 94 1030.3
20260509084803 52 0 0.0 0.0 0.00 0.05 0.04 94 1030.3
20260509083903 52 0 0.0 0.0 0.00 0.05 0.04 94 1030.3
20260509083003 53 0 0.0 0.0 0.00 0.05 0.04 94 1030.3
20260509082425 53 0 0.0 0.0 0.00 0.05 0.04 94 1030.2
20260509081503 53 0 0.0 1.7 0.00 0.05 0.04 94 1030.0
20260509080624 53 0 0.0 0.0 0.00 0.05 0.04 94 1030.0
20260509075703 53 0 0.0 0.0 0.00 0.05 0.04 94 1030.0
20260509074805 53 0 0.0 0.9 0.00 0.05 0.04 94 1030.0
20260509073924 53 0 0.0 0.9 0.00 0.05 0.04 94 1030.0
20260509073003 53 0 0.0 0.9 0.00 0.05 0.04 94 1029.9
20260509072403 53 0 0.0 0.0 0.00 0.05 0.04 94 1029.9